Location: Gälforsberget
(66.6500°N, 22.4167°E)
Time: 11:37:11
(UTC+00:00)

Cosmos 921 Rocket - Pass Details

Date: 11 April 2026
Orbit: 563 x 620 km, 75.8° (Epoch: 10 May)

Event Time Altitude Azimuth Distance (km) Brightness Sun altitude
Rises 21:59:41 0° 325° (NW) 2,914 7.7 -14.5°
Reaches altitude 10° 22:02:03 10° 317° (NW) 2,004 6.5 -14.6°
Maximum altitude 22:06:10 37° 251° (WSW) 979 3.9 -14.6°
Enters shadow 22:08:24 22° 199° (SSW) 1,359 4.3 -14.7°
